Time,TemperatureF,DewpointF,PressureIn,WindDirection,WindDirectionDegrees,WindSpeedMPH,WindSpeedGustMPH,Humidity,HourlyPrecipIn,Conditions,Clouds,dailyrainin,SoftwareType,DateUTC
2013-01-04 00:05:00,58.8,57.9,30.14,NNE,16,2.0,8.0,97,0.00,RA,,0.00,WeatherDisplay:10.37,2013-01-04 05:05:00,
2013-01-04 00:10:00,58.8,58.0,30.14,North,11,0.0,2.0,97,0.01,RA,,0.01,WeatherDisplay:10.37,2013-01-04 05:10:00,
2013-01-04 00:15:00,58.8,57.9,30.14,North,359,0.0,5.0,97,0.00,RA,,0.01,WeatherDisplay:10.37,2013-01-04 05:15:00,
2013-01-04 00:20:00,58.8,57.9,30.14,North,349,1.0,5.0,97,0.00,,,0.01,WeatherDisplay:10.37,2013-01-04 05:20:00,
2013-01-04 00:25:00,58.7,57.9,30.14,North,353,0.0,2.0,97,0.00,CLR,,0.01,WeatherDisplay:10.37,2013-01-04 05:25:00,
2013-01-04 00:30:00,58.7,57.8,30.14,NNE,22,1.0,6.0,97,0.00,CLR,,0.01,WeatherDisplay:10.37,2013-01-04 05:30:00,
2013-01-04 00:35:00,58.6,57.8,30.14,North,3,0.0,6.0,97,0.00,CLR,,0.01,WeatherDisplay:10.37,2013-01-04 05:35:00,
2013-01-04 00:40:00,58.6,57.7,30.14,North,4,1.0,5.0,97,0.00,CLR,,0.01,WeatherDisplay:10.37,2013-01-04 05:40:00,
2013-01-04 00:45:00,58.5,57.7,30.13,North,7,0.0,7.0,97,0.00,CLR,,0.01,WeatherDisplay:10.37,2013-01-04 05:45:00,
2013-01-04 00:50:00,58.4,57.6,30.13,North,6,0.0,8.0,97,0.02,RA,,0.03,WeatherDisplay:10.37,2013-01-04 05:50:00,
2013-01-04 00:55:00,58.2,57.4,30.12,North,7,0.0,6.0,97,0.01,RA,,0.04,WeatherDisplay:10.37,2013-01-04 05:55:00,
2013-01-04 01:00:00,58.2,57.4,30.13,NNE,12,1.0,6.0,97,0.00,RA,,0.04,WeatherDisplay:10.37,2013-01-04 06:00:00,
2013-01-04 01:10:00,58.0,57.2,30.13,NNE,15,1.0,7.0,97,0.00,CLR,,0.04,WeatherDisplay:10.37,2013-01-04 06:10:00,
2013-01-04 01:15:00,57.9,57.1,30.13,North,11,1.0,10.0,97,0.00,CLR,,0.04,WeatherDisplay:10.37,2013-01-04 06:15:00,
2013-01-04 01:25:00,57.5,56.7,30.14,NNE,16,0.0,8.0,97,0.01,RA,,0.05,WeatherDisplay:10.37,2013-01-04 06:25:00,
2013-01-04 01:30:00,57.4,56.5,30.14,North,9,0.0,12.0,97,0.00,RA,,0.05,WeatherDisplay:10.37,2013-01-04 06:30:00,
2013-01-04 01:40:00,56.5,55.4,30.14,North,5,1.0,13.0,96,0.00,CLR,,0.05,WeatherDisplay:10.37,2013-01-04 06:40:00,
2013-01-04 01:55:00,55.9,54.8,30.14,NNE,26,0.0,5.0,96,0.00,CLR,,0.05,WeatherDisplay:10.37,2013-01-04 06:55:00,
2013-01-04 02:05:00,55.7,54.6,30.14,North,359,2.0,8.0,96,0.00,CLR,,0.05,WeatherDisplay:10.37,2013-01-04 07:05:00,
2013-01-04 02:15:00,55.0,53.9,30.14,North,359,0.0,4.0,96,0.00,CLR,,0.05,WeatherDisplay:10.37,2013-01-04 07:15:00,
2013-01-04 02:20:00,54.9,53.8,30.14,North,358,0.0,6.0,96,0.00,CLR,,0.05,WeatherDisplay:10.37,2013-01-04 07:20:00,
2013-01-04 02:25:00,54.9,53.8,30.14,North,353,1.0,5.0,96,0.00,CLR,,0.05,WeatherDisplay:10.37,2013-01-04 07:25:00,
2013-01-04 02:30:00,54.8,53.7,30.14,NNW,336,1.0,7.0,96,0.00,CLR,,0.05,WeatherDisplay:10.37,2013-01-04 07:30:00,
2013-01-04 02:35:00,54.8,53.7,30.14,North,9,1.0,5.0,96,0.00,CLR,,0.05,WeatherDisplay:10.37,2013-01-04 07:35:00,
2013-01-04 02:40:00,54.9,54.1,30.14,NNE,22,1.0,6.0,97,0.00,CLR,,0.05,WeatherDisplay:10.37,2013-01-04 07:40:00,
2013-01-04 02:45:00,54.9,54.1,30.14,NNE,24,0.0,1.0,97,0.00,CLR,,0.05,WeatherDisplay:10.37,2013-01-04 07:45:00,
2013-01-04 02:50:00,55.0,54.1,30.14,NNE,28,0.0,7.0,97,0.00,CLR,,0.05,WeatherDisplay:10.37,2013-01-04 07:50:00,
2013-01-04 02:55:00,55.0,54.2,30.15,NNE,22,0.0,2.0,97,0.00,CLR,,0.05,WeatherDisplay:10.37,2013-01-04 07:55:00,
2013-01-04 03:00:00,55.0,54.2,30.15,North,349,0.0,3.0,97,0.00,CLR,,0.05,WeatherDisplay:10.37,2013-01-04 08:00:00,
2013-01-04 03:05:00,55.0,54.2,30.15,NNW,348,2.0,6.0,97,0.00,CLR,,0.05,WeatherDisplay:10.37,2013-01-04 08:05:00,
2013-01-04 03:10:00,55.0,54.2,30.15,NNW,333,0.0,5.0,97,0.00,CLR,,0.05,WeatherDisplay:10.37,2013-01-04 08:10:00,
2013-01-04 03:15:00,55.0,54.2,30.14,NW,324,0.0,5.0,97,0.00,CLR,,0.05,WeatherDisplay:10.37,2013-01-04 08:15:00,
2013-01-04 03:20:00,55.1,54.3,30.14,NNW,343,0.0,3.0,97,0.00,CLR,,0.05,WeatherDisplay:10.37,2013-01-04 08:20:00,
2013-01-04 03:25:00,55.1,54.3,30.14,NNE,18,1.0,4.0,97,0.01,RA,,0.06,WeatherDisplay:10.37,2013-01-04 08:25:00,
2013-01-04 03:30:00,55.2,54.3,30.14,NNE,33,0.0,7.0,97,0.00,RA,,0.06,WeatherDisplay:10.37,2013-01-04 08:30:00,
2013-01-04 03:35:00,55.2,54.4,30.14,NNE,22,1.0,3.0,97,0.00,,,0.06,WeatherDisplay:10.37,2013-01-04 08:35:00,
2013-01-04 03:40:00,55.3,54.4,30.14,NNE,17,1.0,6.0,97,0.00,CLR,,0.06,WeatherDisplay:10.37,2013-01-04 08:40:00,
2013-01-04 03:45:00,55.3,54.5,30.14,North,2,0.0,6.0,97,0.00,CLR,,0.06,WeatherDisplay:10.37,2013-01-04 08:45:00,
2013-01-04 03:50:00,55.4,54.5,30.14,North,354,1.0,4.0,97,0.00,CLR,,0.06,WeatherDisplay:10.37,2013-01-04 08:50:00,
2013-01-04 03:55:00,55.4,54.6,30.14,NNE,14,0.0,4.0,97,0.00,CLR,,0.06,WeatherDisplay:10.37,2013-01-04 08:55:00,
2013-01-04 04:00:00,55.5,54.6,30.14,NNE,29,2.0,6.0,97,0.00,CLR,,0.06,WeatherDisplay:10.37,2013-01-04 09:00:00,
2013-01-04 04:05:00,55.5,54.7,30.14,NE,34,1.0,6.0,97,0.00,CLR,,0.06,WeatherDisplay:10.37,2013-01-04 09:05:00,
2013-01-04 04:10:00,55.6,54.8,30.14,NNE,21,1.0,7.0,97,0.00,CLR,,0.06,WeatherDisplay:10.37,2013-01-04 09:10:00,
2013-01-04 04:15:00,55.7,54.9,30.14,NNE,23,1.0,3.0,97,0.01,RA,,0.07,WeatherDisplay:10.37,2013-01-04 09:15:00,
2013-01-04 04:20:00,55.7,54.9,30.14,NNE,17,0.0,5.0,97,0.00,RA,,0.07,WeatherDisplay:10.37,2013-01-04 09:20:00,
2013-01-04 04:25:00,55.8,55.0,30.13,NNE,17,1.0,4.0,97,0.00,CLR,,0.07,WeatherDisplay:10.37,2013-01-04 09:25:00,
2013-01-04 04:30:00,55.8,55.0,30.13,NE,34,2.0,8.0,97,0.00,CLR,,0.07,WeatherDisplay:10.37,2013-01-04 09:30:00,
2013-01-04 04:35:00,55.8,55.0,30.14,North,7,2.0,7.0,97,0.00,CLR,,0.07,WeatherDisplay:10.37,2013-01-04 09:35:00,
2013-01-04 04:40:00,55.9,55.1,30.14,North,356,1.0,4.0,97,0.00,CLR,,0.07,WeatherDisplay:10.37,2013-01-04 09:40:00,
2013-01-04 04:45:00,55.9,55.1,30.14,North,10,2.0,8.0,97,0.00,CLR,,0.07,WeatherDisplay:10.37,2013-01-04 09:45:00,
2013-01-04 04:50:00,55.9,55.1,30.14,NNE,27,2.0,7.0,97,0.00,CLR,,0.07,WeatherDisplay:10.37,2013-01-04 09:50:00,
2013-01-04 04:55:00,56.0,55.1,30.14,NNE,33,1.0,7.0,97,0.00,CLR,,0.07,WeatherDisplay:10.37,2013-01-04 09:55:00,
2013-01-04 05:00:00,56.0,55.2,30.14,NE,38,0.0,6.0,97,0.01,RA,,0.08,WeatherDisplay:10.37,2013-01-04 10:00:00,
2013-01-04 05:10:00,56.1,55.2,30.15,North,352,1.0,5.0,97,0.00,,,0.08,WeatherDisplay:10.37,2013-01-04 10:10:00,
2013-01-04 05:15:00,56.0,55.2,30.15,NNW,337,1.0,6.0,97,0.00,CLR,,0.08,WeatherDisplay:10.37,2013-01-04 10:15:00,
2013-01-04 05:20:00,56.0,55.2,30.15,NNW,330,1.0,7.0,97,0.00,CLR,,0.08,WeatherDisplay:10.37,2013-01-04 10:20:00,
2013-01-04 05:25:00,55.9,55.1,30.15,NNW,346,1.0,5.0,97,0.01,RA,,0.09,WeatherDisplay:10.37,2013-01-04 10:25:00,
2013-01-04 05:30:00,55.8,55.0,30.15,North,359,0.0,3.0,97,0.01,RA,,0.10,WeatherDisplay:10.37,2013-01-04 10:30:00,
2013-01-04 05:35:00,55.6,54.7,30.16,North,349,1.0,5.0,97,0.00,RA,,0.10,WeatherDisplay:10.37,2013-01-04 10:35:00,
2013-01-04 05:40:00,55.4,54.6,30.16,NNW,346,1.0,6.0,97,0.00,,,0.10,WeatherDisplay:10.37,2013-01-04 10:40:00,
2013-01-04 05:50:00,55.3,54.4,30.16,North,353,1.0,9.0,97,0.00,RA,,0.11,WeatherDisplay:10.37,2013-01-04 10:50:00,
2013-01-04 05:55:00,55.1,54.3,30.17,North,360,0.0,8.0,97,0.00,,,0.11,WeatherDisplay:10.37,2013-01-04 10:55:00,
2013-01-04 06:00:00,55.0,54.1,30.17,NNE,14,0.0,5.0,97,0.01,RA,,0.12,WeatherDisplay:10.37,2013-01-04 11:00:00,
2013-01-04 06:10:00,54.8,54.0,30.17,NNE,30,1.0,7.0,97,0.00,CLR,,0.12,WeatherDisplay:10.37,2013-01-04 11:10:00,
2013-01-04 06:15:00,54.7,53.9,30.17,NNE,18,0.0,5.0,97,0.01,RA,,0.13,WeatherDisplay:10.37,2013-01-04 11:15:00,
2013-01-04 06:20:00,54.6,53.8,30.17,North,349,2.0,6.0,97,0.00,RA,,0.13,WeatherDisplay:10.37,2013-01-04 11:20:00,
2013-01-04 06:25:00,54.5,53.7,30.17,NNW,331,0.0,5.0,97,0.00,,,0.13,WeatherDisplay:10.37,2013-01-04 11:25:00,
2013-01-04 06:30:00,54.4,53.6,30.17,North,355,0.0,6.0,97,0.00,CLR,,0.13,WeatherDisplay:10.37,2013-01-04 11:30:00,
2013-01-04 06:35:00,54.4,53.6,30.18,North,357,0.0,3.0,97,0.00,CLR,,0.13,WeatherDisplay:10.37,2013-01-04 11:35:00,
2013-01-04 06:40:00,54.4,53.6,30.18,North,8,0.0,4.0,97,0.00,CLR,,0.13,WeatherDisplay:10.37,2013-01-04 11:40:00,
2013-01-04 06:50:00,54.4,53.6,30.18,NNE,14,1.0,6.0,97,0.00,RA,,0.14,WeatherDisplay:10.37,2013-01-04 11:50:00,
2013-01-04 06:55:00,54.4,53.6,30.18,NNE,14,0.0,5.0,97,0.00,CLR,,0.14,WeatherDisplay:10.37,2013-01-04 11:55:00,
2013-01-04 07:00:00,54.4,53.6,30.18,NNE,14,0.0,2.0,97,0.00,CLR,,0.14,WeatherDisplay:10.37,2013-01-04 12:00:00,
2013-01-04 07:05:00,54.3,53.5,30.18,North,351,0.0,3.0,97,0.00,CLR,,0.14,WeatherDisplay:10.37,2013-01-04 12:05:00,
2013-01-04 07:10:00,54.2,53.4,30.18,North,349,0.0,5.0,97,0.00,CLR,,0.14,WeatherDisplay:10.37,2013-01-04 12:10:00,
2013-01-04 07:15:00,54.1,53.3,30.18,NNW,344,0.0,4.0,97,0.01,RA,,0.15,WeatherDisplay:10.37,2013-01-04 12:15:00,
2013-01-04 07:20:00,54.1,53.3,30.18,North,5,0.0,3.0,97,0.00,RA,,0.15,WeatherDisplay:10.37,2013-01-04 12:20:00,
2013-01-04 07:25:00,54.0,53.2,30.18,North,9,1.0,3.0,97,0.00,,,0.15,WeatherDisplay:10.37,2013-01-04 12:25:00,
2013-01-04 07:30:00,53.9,53.1,30.19,NNW,329,0.0,5.0,97,0.00,CLR,,0.15,WeatherDisplay:10.37,2013-01-04 12:30:00,
2013-01-04 07:35:00,53.9,53.1,30.19,North,359,0.0,5.0,97,0.00,CLR,,0.15,WeatherDisplay:10.37,2013-01-04 12:35:00,
2013-01-04 07:40:00,53.9,53.1,30.20,NNE,15,0.0,3.0,97,0.00,CLR,,0.15,WeatherDisplay:10.37,2013-01-04 12:40:00,
2013-01-04 07:45:00,53.9,53.1,30.20,North,7,0.0,3.0,97,0.00,CLR,,0.15,WeatherDisplay:10.37,2013-01-04 12:45:00,
2013-01-04 07:50:00,53.9,53.1,30.21,NNW,348,0.0,3.0,97,0.00,CLR,,0.15,WeatherDisplay:10.37,2013-01-04 12:50:00,
2013-01-04 07:55:00,53.9,53.1,30.20,NW,326,0.0,4.0,97,0.00,CLR,,0.15,WeatherDisplay:10.37,2013-01-04 12:55:00,
2013-01-04 08:00:00,54.0,53.2,30.20,North,349,0.0,4.0,97,0.00,CLR,,0.15,WeatherDisplay:10.37,2013-01-04 13:00:00,
2013-01-04 08:05:00,54.1,53.3,30.21,North,8,0.0,2.0,97,0.00,CLR,,0.15,WeatherDisplay:10.37,2013-01-04 13:05:00,
2013-01-04 08:10:00,54.1,53.3,30.21,North,6,0.0,1.0,97,0.00,CLR,,0.15,WeatherDisplay:10.37,2013-01-04 13:10:00,
2013-01-04 08:15:00,54.1,53.3,30.21,North,357,0.0,3.0,97,0.00,CLR,,0.15,WeatherDisplay:10.37,2013-01-04 13:15:00,
2013-01-04 08:20:00,54.2,53.4,30.21,North,3,0.0,3.0,97,0.00,CLR,,0.15,WeatherDisplay:10.37,2013-01-04 13:20:00,
2013-01-04 08:25:00,54.2,53.4,30.21,NNE,12,0.0,3.0,97,0.00,CLR,,0.15,WeatherDisplay:10.37,2013-01-04 13:25:00,
2013-01-04 08:30:00,54.3,53.4,30.21,NNE,30,0.0,5.0,97,0.00,CLR,,0.15,WeatherDisplay:10.37,2013-01-04 13:30:00,
2013-01-04 08:35:00,54.4,53.6,30.21,NNE,17,1.0,8.0,97,0.00,CLR,,0.15,WeatherDisplay:10.37,2013-01-04 13:35:00,
2013-01-04 08:40:00,54.5,53.6,30.21,NNE,13,0.0,4.0,97,0.00,CLR,,0.15,WeatherDisplay:10.37,2013-01-04 13:40:00,
2013-01-04 08:45:00,54.5,53.7,30.22,NNE,16,0.0,3.0,97,0.00,CLR,,0.15,WeatherDisplay:10.37,2013-01-04 13:45:00,
2013-01-04 08:50:00,54.6,53.8,30.22,North,359,0.0,6.0,97,0.00,CLR,,0.15,WeatherDisplay:10.37,2013-01-04 13:50:00,
2013-01-04 08:55:00,54.7,53.9,30.22,North,358,0.0,4.0,97,0.00,CLR,,0.15,WeatherDisplay:10.37,2013-01-04 13:55:00,
2013-01-04 09:05:00,55.0,54.2,30.22,NNE,20,0.0,5.0,97,0.00,CLR,,0.15,WeatherDisplay:10.37,2013-01-04 14:05:00,
2013-01-04 09:10:00,55.1,54.3,30.22,NNE,19,0.0,5.0,97,0.00,CLR,,0.15,WeatherDisplay:10.37,2013-01-04 14:10:00,
2013-01-04 09:15:00,55.2,54.4,30.22,North,11,1.0,5.0,97,0.00,CLR,,0.15,WeatherDisplay:10.37,2013-01-04 14:15:00,
2013-01-04 09:20:00,55.3,54.5,30.22,North,6,0.0,2.0,97,0.00,CLR,,0.15,WeatherDisplay:10.37,2013-01-04 14:20:00,
2013-01-04 09:25:00,55.4,54.6,30.22,NNW,347,0.0,3.0,97,0.00,CLR,,0.15,WeatherDisplay:10.37,2013-01-04 14:25:00,
2013-01-04 09:30:00,55.5,54.7,30.22,NNW,341,0.0,2.0,97,0.00,CLR,,0.15,WeatherDisplay:10.37,2013-01-04 14:30:00,
2013-01-04 09:35:00,55.7,54.9,30.22,NNE,13,0.0,2.0,97,0.00,CLR,,0.15,WeatherDisplay:10.37,2013-01-04 14:35:00,
2013-01-04 09:40:00,55.8,55.0,30.22,North,9,0.0,1.0,97,0.00,CLR,,0.15,WeatherDisplay:10.37,2013-01-04 14:40:00,
2013-01-04 09:45:00,55.9,55.0,30.23,North,359,0.0,3.0,97,0.00,CLR,,0.15,WeatherDisplay:10.37,2013-01-04 14:45:00,
2013-01-04 09:55:00,55.9,55.1,30.23,NNW,328,1.0,3.0,97,0.00,CLR,,0.15,WeatherDisplay:10.37,2013-01-04 14:55:00,
2013-01-04 10:00:00,56.1,55.3,30.22,NNW,329,0.0,1.0,97,0.01,RA,,0.16,WeatherDisplay:10.37,2013-01-04 15:00:00,
2013-01-04 10:05:00,56.4,55.5,30.23,NNW,341,0.0,2.0,97,0.00,RA,,0.16,WeatherDisplay:10.37,2013-01-04 15:05:00,
2013-01-04 10:15:00,56.7,55.8,30.23,WNW,300,0.0,2.0,97,0.00,CLR,,0.16,WeatherDisplay:10.37,2013-01-04 15:15:00,
2013-01-04 10:20:00,56.7,55.8,30.23,NNW,341,0.0,5.0,97,0.01,RA,,0.17,WeatherDisplay:10.37,2013-01-04 15:20:00,
2013-01-04 10:25:00,56.8,56.0,30.23,North,3,0.0,2.0,97,0.00,RA,,0.17,WeatherDisplay:10.37,2013-01-04 15:25:00,
2013-01-04 10:30:00,57.1,56.5,30.22,North,7,1.0,5.0,98,0.00,,,0.17,WeatherDisplay:10.37,2013-01-04 15:30:00,
2013-01-04 10:35:00,57.1,56.6,30.22,North,349,0.0,5.0,98,0.00,CLR,,0.17,WeatherDisplay:10.37,2013-01-04 15:35:00,
2013-01-04 10:40:00,57.3,56.7,30.22,NNW,345,0.0,3.0,98,0.00,CLR,,0.17,WeatherDisplay:10.37,2013-01-04 15:40:00,
2013-01-04 10:45:00,57.3,56.4,30.22,NNW,341,0.0,6.0,97,0.00,CLR,,0.17,WeatherDisplay:10.37,2013-01-04 15:45:00,
2013-01-04 10:50:00,57.3,56.5,30.22,North,349,0.0,4.0,97,0.00,CLR,,0.17,WeatherDisplay:10.37,2013-01-04 15:50:00,
2013-01-04 10:55:00,57.5,56.7,30.22,North,5,0.0,1.0,97,0.00,CLR,,0.17,WeatherDisplay:10.37,2013-01-04 15:55:00,
2013-01-04 11:00:00,57.6,56.8,30.22,NNE,13,0.0,4.0,97,0.00,CLR,,0.17,WeatherDisplay:10.37,2013-01-04 16:00:00,
2013-01-04 11:05:00,57.5,56.6,30.22,North,356,0.0,2.0,97,0.01,RA,,0.18,WeatherDisplay:10.37,2013-01-04 16:05:00,
2013-01-04 11:10:00,57.5,56.7,30.22,North,2,1.0,4.0,97,0.00,RA,,0.18,WeatherDisplay:10.37,2013-01-04 16:10:00,
2013-01-04 11:15:00,57.4,56.6,30.22,North,349,0.0,4.0,97,0.00,CLR,,0.18,WeatherDisplay:10.37,2013-01-04 16:15:00,
2013-01-04 11:20:00,57.4,56.6,30.22,NNW,339,0.0,4.0,97,0.00,CLR,,0.18,WeatherDisplay:10.37,2013-01-04 16:20:00,
2013-01-04 11:25:00,57.6,56.8,30.22,North,351,0.0,2.0,97,0.00,CLR,,0.18,WeatherDisplay:10.37,2013-01-04 16:25:00,
2013-01-04 11:30:00,57.8,57.2,30.22,North,352,0.0,2.0,98,0.00,CLR,,0.18,WeatherDisplay:10.37,2013-01-04 16:30:00,
2013-01-04 11:35:00,57.7,56.9,30.22,NW,312,0.0,1.0,97,0.01,RA,,0.19,WeatherDisplay:10.37,2013-01-04 16:35:00,
2013-01-04 11:40:00,57.8,57.0,30.22,NW,312,1.0,3.0,97,0.00,RA,,0.19,WeatherDisplay:10.37,2013-01-04 16:40:00,
2013-01-04 11:45:00,57.8,57.0,30.21,NW,326,0.0,5.0,97,0.00,CLR,,0.19,WeatherDisplay:10.37,2013-01-04 16:45:00,
2013-01-04 11:50:00,58.0,57.2,30.21,NNW,329,0.0,1.0,97,0.00,CLR,,0.19,WeatherDisplay:10.37,2013-01-04 16:50:00,
2013-01-04 11:55:00,58.2,57.4,30.21,NNW,330,0.0,2.0,97,0.00,CLR,,0.19,WeatherDisplay:10.37,2013-01-04 16:55:00,
2013-01-04 12:00:00,58.3,57.4,30.21,NNW,340,0.0,3.0,97,0.00,CLR,,0.19,WeatherDisplay:10.37,2013-01-04 17:00:00,
2013-01-04 12:05:00,58.2,57.7,30.21,NW,321,0.0,4.0,98,0.00,CLR,,0.19,WeatherDisplay:10.37,2013-01-04 17:05:00,
2013-01-04 12:10:00,58.1,57.3,30.20,North,7,1.0,6.0,97,0.01,RA,,0.20,WeatherDisplay:10.37,2013-01-04 17:10:00,
2013-01-04 12:15:00,58.2,57.3,30.20,NNE,30,1.0,5.0,97,0.00,RA,,0.20,WeatherDisplay:10.37,2013-01-04 17:15:00,
2013-01-04 12:20:00,58.0,57.2,30.20,NNE,32,0.0,4.0,97,0.00,CLR,,0.20,WeatherDisplay:10.37,2013-01-04 17:20:00,
2013-01-04 12:25:00,58.1,57.2,30.20,NNE,15,0.0,2.0,97,0.00,CLR,,0.20,WeatherDisplay:10.37,2013-01-04 17:25:00,
2013-01-04 12:30:00,58.0,57.2,30.19,NNE,14,0.0,1.0,97,0.00,CLR,,0.20,WeatherDisplay:10.37,2013-01-04 17:30:00,
2013-01-04 12:35:00,58.1,57.3,30.19,North,7,0.0,3.0,97,0.00,CLR,,0.20,WeatherDisplay:10.37,2013-01-04 17:35:00,
2013-01-04 12:40:00,58.1,57.3,30.19,North,4,1.0,3.0,97,0.00,CLR,,0.20,WeatherDisplay:10.37,2013-01-04 17:40:00,
2013-01-04 12:45:00,58.2,57.4,30.19,NNE,18,0.0,6.0,97,0.00,CLR,,0.20,WeatherDisplay:10.37,2013-01-04 17:45:00,
2013-01-04 12:50:00,58.1,57.3,30.19,NNE,14,0.0,4.0,97,0.00,CLR,,0.20,WeatherDisplay:10.37,2013-01-04 17:50:00,
2013-01-04 12:55:00,58.1,57.2,30.18,NW,318,0.0,5.0,97,0.00,CLR,,0.20,WeatherDisplay:10.37,2013-01-04 17:55:00,
2013-01-04 13:00:00,58.1,57.3,30.18,NW,318,1.0,7.0,97,0.00,CLR,,0.20,WeatherDisplay:10.37,2013-01-04 18:00:00,
2013-01-04 13:05:00,58.1,57.3,30.18,NNW,344,0.0,3.0,97,0.00,CLR,,0.20,WeatherDisplay:10.37,2013-01-04 18:05:00,
2013-01-04 13:10:00,58.0,57.2,30.18,NW,319,0.0,5.0,97,0.00,CLR,,0.20,WeatherDisplay:10.37,2013-01-04 18:10:00,
2013-01-04 13:15:00,58.0,57.2,30.18,NNW,327,1.0,5.0,97,0.00,CLR,,0.20,WeatherDisplay:10.37,2013-01-04 18:15:00,
2013-01-04 13:20:00,58.0,57.1,30.18,NNW,330,0.0,6.0,97,0.00,CLR,,0.20,WeatherDisplay:10.37,2013-01-04 18:20:00,
2013-01-04 13:25:00,58.1,57.3,30.17,NNW,327,1.0,5.0,97,0.00,CLR,,0.20,WeatherDisplay:10.37,2013-01-04 18:25:00,
2013-01-04 13:30:00,58.3,57.5,30.17,North,355,0.0,4.0,97,0.00,CLR,,0.20,WeatherDisplay:10.37,2013-01-04 18:30:00,
2013-01-04 13:40:00,58.4,57.5,30.17,NNW,341,0.0,6.0,97,0.01,RA,,0.21,WeatherDisplay:10.37,2013-01-04 18:40:00,
2013-01-04 13:45:00,58.5,57.6,30.17,North,6,0.0,1.0,97,0.00,RA,,0.21,WeatherDisplay:10.37,2013-01-04 18:45:00,
2013-01-04 13:50:00,58.3,57.5,30.17,NNW,346,1.0,9.0,97,0.00,CLR,,0.21,WeatherDisplay:10.37,2013-01-04 18:50:00,
2013-01-04 13:55:00,58.3,57.4,30.17,NW,309,0.0,2.0,97,0.00,CLR,,0.21,WeatherDisplay:10.37,2013-01-04 18:55:00,
2013-01-04 14:00:00,58.4,57.6,30.17,NNW,327,0.0,2.0,97,0.00,CLR,,0.21,WeatherDisplay:10.37,2013-01-04 19:00:00,
2013-01-04 14:05:00,58.4,57.6,30.17,NNW,330,0.0,2.0,97,0.00,CLR,,0.21,WeatherDisplay:10.37,2013-01-04 19:05:00,
2013-01-04 14:10:00,58.6,57.8,30.17,North,351,0.0,2.0,97,0.00,CLR,,0.21,WeatherDisplay:10.37,2013-01-04 19:10:00,
2013-01-04 14:15:00,58.6,57.8,30.16,NNW,344,0.0,5.0,97,0.00,CLR,,0.21,WeatherDisplay:10.37,2013-01-04 19:15:00,
2013-01-04 14:20:00,58.6,57.7,30.16,NW,319,1.0,4.0,97,0.00,CLR,,0.21,WeatherDisplay:10.37,2013-01-04 19:20:00,
2013-01-04 14:25:00,58.5,57.7,30.16,NW,323,0.0,5.0,97,0.00,CLR,,0.21,WeatherDisplay:10.37,2013-01-04 19:25:00,
2013-01-04 14:30:00,58.6,57.7,30.16,North,357,0.0,3.0,97,0.00,CLR,,0.21,WeatherDisplay:10.37,2013-01-04 19:30:00,
2013-01-04 14:35:00,58.6,57.8,30.16,North,1,0.0,4.0,97,0.00,CLR,,0.21,WeatherDisplay:10.37,2013-01-04 19:35:00,
2013-01-04 14:40:00,58.6,57.8,30.16,North,349,0.0,1.0,97,0.00,CLR,,0.21,WeatherDisplay:10.37,2013-01-04 19:40:00,
2013-01-04 14:45:00,58.7,57.9,30.16,North,355,0.0,1.0,97,0.01,RA,,0.22,WeatherDisplay:10.37,2013-01-04 19:45:00,
2013-01-04 14:50:00,58.7,57.9,30.16,NW,326,0.0,2.0,97,0.00,RA,,0.22,WeatherDisplay:10.37,2013-01-04 19:50:00,
2013-01-04 14:55:00,58.8,58.0,30.17,NW,317,1.0,4.0,97,0.00,,,0.22,WeatherDisplay:10.37,2013-01-04 19:55:00,
2013-01-04 15:00:00,58.8,58.0,30.17,NNW,342,0.0,4.0,97,0.00,CLR,,0.22,WeatherDisplay:10.37,2013-01-04 20:00:00,
2013-01-04 15:05:00,58.9,58.3,30.17,NNE,17,0.0,2.0,98,0.00,CLR,,0.22,WeatherDisplay:10.37,2013-01-04 20:05:00,
2013-01-04 15:10:00,58.9,58.3,30.17,NNE,18,0.0,2.0,98,0.00,CLR,,0.22,WeatherDisplay:10.37,2013-01-04 20:10:00,
2013-01-04 15:15:00,58.8,58.0,30.17,North,349,2.0,5.0,97,0.00,CLR,,0.22,WeatherDisplay:10.37,2013-01-04 20:15:00,
2013-01-04 15:20:00,58.8,57.9,30.17,NW,326,0.0,4.0,97,0.00,CLR,,0.22,WeatherDisplay:10.37,2013-01-04 20:20:00,
2013-01-04 15:25:00,58.7,57.9,30.17,NNW,332,0.0,1.0,97,0.00,CLR,,0.22,WeatherDisplay:10.37,2013-01-04 20:25:00,
2013-01-04 15:30:00,58.8,58.0,30.17,NNW,339,0.0,1.0,97,0.01,RA,,0.23,WeatherDisplay:10.37,2013-01-04 20:30:00,
2013-01-04 15:35:00,58.8,58.3,30.17,NNW,345,0.0,2.0,98,0.00,RA,,0.23,WeatherDisplay:10.37,2013-01-04 20:35:00,
2013-01-04 15:40:00,58.9,58.3,30.17,North,3,0.0,1.0,98,0.00,CLR,,0.23,WeatherDisplay:10.37,2013-01-04 20:40:00,
2013-01-04 15:45:00,58.9,58.3,30.17,North,358,0.0,1.0,98,0.01,RA,,0.24,WeatherDisplay:10.37,2013-01-04 20:45:00,
2013-01-04 15:50:00,59.0,58.4,30.18,North,355,0.0,2.0,98,0.00,RA,,0.24,WeatherDisplay:10.37,2013-01-04 20:50:00,
2013-01-04 15:55:00,59.0,58.4,30.18,North,6,0.0,1.0,98,0.00,,,0.24,WeatherDisplay:10.37,2013-01-04 20:55:00,
2013-01-04 16:00:00,59.1,58.5,30.18,NNE,20,0.0,3.0,98,0.00,CLR,,0.24,WeatherDisplay:10.37,2013-01-04 21:00:00,
2013-01-04 16:05:00,59.1,58.5,30.18,NNE,27,0.0,2.0,98,0.00,CLR,,0.24,WeatherDisplay:10.37,2013-01-04 21:05:00,
2013-01-04 16:10:00,59.1,58.6,30.18,NNE,25,1.0,3.0,98,0.00,CLR,,0.24,WeatherDisplay:10.37,2013-01-04 21:10:00,
2013-01-04 16:15:00,59.1,58.5,30.18,NNE,16,0.0,1.0,98,0.00,CLR,,0.24,WeatherDisplay:10.37,2013-01-04 21:15:00,
2013-01-04 16:25:00,59.2,58.4,30.18,NNE,28,0.0,1.0,97,0.00,CLR,,0.24,WeatherDisplay:10.37,2013-01-04 21:25:00,
2013-01-04 16:30:00,59.3,58.4,30.18,NNE,26,0.0,2.0,97,0.00,CLR,,0.24,WeatherDisplay:10.37,2013-01-04 21:30:00,
2013-01-04 16:35:00,59.3,58.4,30.18,NNE,14,0.0,1.0,97,0.01,RA,,0.25,WeatherDisplay:10.37,2013-01-04 21:35:00,
2013-01-04 16:40:00,59.3,58.4,30.19,NNE,18,0.0,2.0,97,0.00,RA,,0.25,WeatherDisplay:10.37,2013-01-04 21:40:00,
2013-01-04 16:50:00,59.2,58.3,30.19,NW,313,0.0,3.0,97,0.00,CLR,,0.25,WeatherDisplay:10.37,2013-01-04 21:50:00,
2013-01-04 16:55:00,59.2,58.3,30.19,NW,322,0.0,2.0,97,0.00,CLR,,0.25,WeatherDisplay:10.37,2013-01-04 21:55:00,
2013-01-04 17:00:00,59.2,58.6,30.19,NNW,334,0.0,2.0,98,0.00,CLR,,0.25,WeatherDisplay:10.37,2013-01-04 22:00:00,
2013-01-04 17:05:00,59.2,58.6,30.19,NW,323,1.0,2.0,98,0.00,CLR,,0.25,WeatherDisplay:10.37,2013-01-04 22:05:00,
2013-01-04 17:10:00,59.2,58.6,30.20,NW,318,0.0,1.0,98,0.01,RA,,0.26,WeatherDisplay:10.37,2013-01-04 22:10:00,
2013-01-04 17:15:00,59.2,58.6,30.20,NW,312,0.0,3.0,98,0.00,RA,,0.26,WeatherDisplay:10.37,2013-01-04 22:15:00,
2013-01-04 17:20:00,59.2,58.6,30.20,NW,321,0.0,4.0,98,0.00,CLR,,0.26,WeatherDisplay:10.37,2013-01-04 22:20:00,
2013-01-04 17:25:00,59.2,58.6,30.20,NNW,332,1.0,4.0,98,0.01,RA,,0.27,WeatherDisplay:10.37,2013-01-04 22:25:00,
2013-01-04 17:30:00,59.2,58.6,30.20,NNW,341,0.0,2.0,98,0.00,RA,,0.27,WeatherDisplay:10.37,2013-01-04 22:30:00,
2013-01-04 17:35:00,59.2,58.6,30.20,NNW,342,0.0,1.0,98,0.00,,,0.27,WeatherDisplay:10.37,2013-01-04 22:35:00,
2013-01-04 17:40:00,59.2,58.6,30.20,NNW,340,0.0,2.0,98,0.00,CLR,,0.27,WeatherDisplay:10.37,2013-01-04 22:40:00,
2013-01-04 17:45:00,59.2,58.6,30.20,NNW,340,0.0,1.0,98,0.00,CLR,,0.27,WeatherDisplay:10.37,2013-01-04 22:45:00,
2013-01-04 17:55:00,59.2,58.6,30.20,NNW,340,0.0,1.0,98,0.00,CLR,,0.27,WeatherDisplay:10.37,2013-01-04 22:55:00,
2013-01-04 18:00:00,59.2,58.6,30.21,NNW,340,0.0,1.0,98,0.00,CLR,,0.27,WeatherDisplay:10.37,2013-01-04 23:00:00,
2013-01-04 18:10:00,59.1,58.5,30.21,NNW,330,0.0,4.0,98,0.00,CLR,,0.27,WeatherDisplay:10.37,2013-01-04 23:10:00,
2013-01-04 18:20:00,59.1,58.5,30.21,NNW,333,2.0,6.0,98,0.00,CLR,,0.27,WeatherDisplay:10.37,2013-01-04 23:20:00,
2013-01-04 18:25:00,59.1,58.5,30.21,NNW,333,0.0,2.0,98,0.00,CLR,,0.27,WeatherDisplay:10.37,2013-01-04 23:25:00,
2013-01-04 18:35:00,59.1,58.5,30.22,NNW,330,0.0,3.0,98,0.00,CLR,,0.27,WeatherDisplay:10.37,2013-01-04 23:35:00,
2013-01-04 18:40:00,59.1,58.6,30.22,NW,321,0.0,4.0,98,0.00,CLR,,0.27,WeatherDisplay:10.37,2013-01-04 23:40:00,
2013-01-04 18:45:00,59.2,58.6,30.22,NNW,334,0.0,4.0,98,0.00,CLR,,0.27,WeatherDisplay:10.37,2013-01-04 23:45:00,
2013-01-04 18:50:00,59.2,58.6,30.23,North,6,0.0,4.0,98,0.00,CLR,,0.27,WeatherDisplay:10.37,2013-01-04 23:50:00,
2013-01-04 18:55:00,59.1,58.5,30.23,NNE,25,0.0,1.0,98,0.00,CLR,,0.27,WeatherDisplay:10.37,2013-01-04 23:55:00,
2013-01-04 19:00:00,59.1,58.5,30.23,NW,324,0.0,5.0,98,0.00,CLR,,0.27,WeatherDisplay:10.37,2013-01-05 00:00:00,
2013-01-04 19:05:00,59.0,58.5,30.23,North,357,1.0,5.0,98,0.00,CLR,,0.27,WeatherDisplay:10.37,2013-01-05 00:05:00,
2013-01-04 19:10:00,59.0,58.4,30.23,North,10,0.0,4.0,98,0.00,CLR,,0.27,WeatherDisplay:10.37,2013-01-05 00:10:00,
2013-01-04 19:20:00,58.5,57.7,30.23,NE,40,1.0,4.0,97,0.00,RA,,0.28,WeatherDisplay:10.37,2013-01-05 00:20:00,
2013-01-04 19:25:00,58.4,57.8,30.23,NNE,31,0.0,3.0,98,0.00,,,0.28,WeatherDisplay:10.37,2013-01-05 00:25:00,
2013-01-04 19:35:00,58.1,57.3,30.23,NNE,28,1.0,8.0,97,0.00,CLR,,0.28,WeatherDisplay:10.37,2013-01-05 00:35:00,
2013-01-04 19:40:00,58.0,57.1,30.24,NNE,26,0.0,4.0,97,0.00,CLR,,0.28,WeatherDisplay:10.37,2013-01-05 00:40:00,
2013-01-04 19:50:00,57.8,57.0,30.24,NE,39,0.0,1.0,97,0.00,CLR,,0.28,WeatherDisplay:10.37,2013-01-05 00:50:00,
2013-01-04 19:55:00,57.7,56.9,30.24,NE,36,0.0,5.0,97,0.00,CLR,,0.28,WeatherDisplay:10.37,2013-01-05 00:55:00,
2013-01-04 20:00:00,57.5,56.7,30.24,NNE,29,1.0,7.0,97,0.00,CLR,,0.28,WeatherDisplay:10.37,2013-01-05 01:00:00,
2013-01-04 20:10:00,57.2,56.3,30.24,NNE,27,0.0,6.0,97,0.00,CLR,,0.28,WeatherDisplay:10.37,2013-01-05 01:10:00,
2013-01-04 20:20:00,56.9,56.0,30.25,NNE,33,0.0,5.0,97,0.00,CLR,,0.28,WeatherDisplay:10.37,2013-01-05 01:20:00,
2013-01-04 20:25:00,56.8,56.0,30.25,NNE,25,0.0,5.0,97,0.00,CLR,,0.28,WeatherDisplay:10.37,2013-01-05 01:25:00,
2013-01-04 20:30:00,56.8,56.0,30.25,NNE,27,2.0,8.0,97,0.00,CLR,,0.28,WeatherDisplay:10.37,2013-01-05 01:30:00,
2013-01-04 20:35:00,56.6,55.8,30.25,NNE,29,0.0,2.0,97,0.00,CLR,,0.28,WeatherDisplay:10.37,2013-01-05 01:35:00,
2013-01-04 20:40:00,56.6,55.8,30.25,NNE,30,0.0,3.0,97,0.00,CLR,,0.28,WeatherDisplay:10.37,2013-01-05 01:40:00,
2013-01-04 20:45:00,56.6,55.8,30.25,NNE,31,0.0,4.0,97,0.00,CLR,,0.28,WeatherDisplay:10.37,2013-01-05 01:45:00,
2013-01-04 20:50:00,56.5,55.7,30.25,NNE,30,1.0,6.0,97,0.00,CLR,,0.28,WeatherDisplay:10.37,2013-01-05 01:50:00,
2013-01-04 20:55:00,56.4,55.6,30.26,NNE,20,1.0,9.0,97,0.00,CLR,,0.28,WeatherDisplay:10.37,2013-01-05 01:55:00,
2013-01-04 21:00:00,56.2,55.4,30.26,NNE,23,2.0,6.0,97,0.00,CLR,,0.28,WeatherDisplay:10.37,2013-01-05 02:00:00,
2013-01-04 21:05:00,56.1,55.3,30.26,NNE,27,0.0,4.0,97,0.00,CLR,,0.28,WeatherDisplay:10.37,2013-01-05 02:05:00,
2013-01-04 21:10:00,56.0,55.2,30.26,NNE,25,1.0,5.0,97,0.00,CLR,,0.28,WeatherDisplay:10.37,2013-01-05 02:10:00,
2013-01-04 21:15:00,55.9,55.1,30.26,NNE,24,0.0,6.0,97,0.00,CLR,,0.28,WeatherDisplay:10.37,2013-01-05 02:15:00,
2013-01-04 21:20:00,55.9,55.1,30.25,NNE,23,0.0,3.0,97,0.00,CLR,,0.28,WeatherDisplay:10.37,2013-01-05 02:20:00,
2013-01-04 21:25:00,55.9,55.1,30.25,NE,47,0.0,2.0,97,0.00,CLR,,0.28,WeatherDisplay:10.37,2013-01-05 02:25:00,
2013-01-04 21:30:00,55.9,55.1,30.25,NE,42,1.0,5.0,97,0.00,CLR,,0.28,WeatherDisplay:10.37,2013-01-05 02:30:00,
2013-01-04 21:35:00,55.9,55.1,30.25,NE,40,0.0,5.0,97,0.00,CLR,,0.28,WeatherDisplay:10.37,2013-01-05 02:35:00,
2013-01-04 21:40:00,55.9,55.0,30.25,NE,41,0.0,4.0,97,0.00,CLR,,0.28,WeatherDisplay:10.37,2013-01-05 02:40:00,
2013-01-04 21:45:00,55.8,55.0,30.25,North,5,0.0,1.0,97,0.00,CLR,,0.28,WeatherDisplay:10.37,2013-01-05 02:45:00,
2013-01-04 21:50:00,55.8,55.0,30.25,NNW,335,0.0,1.0,97,0.00,CLR,,0.28,WeatherDisplay:10.37,2013-01-05 02:50:00,
2013-01-04 21:55:00,55.8,54.9,30.25,NNW,335,0.0,2.0,97,0.00,CLR,,0.28,WeatherDisplay:10.37,2013-01-05 02:55:00,
2013-01-04 22:00:00,55.7,54.9,30.25,NNW,335,0.0,1.0,97,0.00,CLR,,0.28,WeatherDisplay:10.37,2013-01-05 03:00:00,
2013-01-04 22:05:00,55.7,54.9,30.25,NNW,335,0.0,0.0,97,0.00,CLR,,0.28,WeatherDisplay:10.37,2013-01-05 03:05:00,
2013-01-04 22:10:00,55.7,54.9,30.25,NNW,335,0.0,0.0,97,0.00,CLR,,0.28,WeatherDisplay:10.37,2013-01-05 03:10:00,
2013-01-04 22:15:00,55.7,54.9,30.24,NNW,335,0.0,2.0,97,0.00,CLR,,0.28,WeatherDisplay:10.37,2013-01-05 03:15:00,
2013-01-04 22:20:00,55.6,54.8,30.24,NNW,335,0.0,2.0,97,0.00,CLR,,0.28,WeatherDisplay:10.37,2013-01-05 03:20:00,
2013-01-04 22:30:00,55.4,54.6,30.24,NNW,335,0.0,2.0,97,0.00,CLR,,0.28,WeatherDisplay:10.37,2013-01-05 03:30:00,
2013-01-04 22:35:00,55.5,54.7,30.24,NNW,335,0.0,1.0,97,0.00,CLR,,0.28,WeatherDisplay:10.37,2013-01-05 03:35:00,
2013-01-04 22:40:00,55.6,54.8,30.24,NNW,343,0.0,5.0,97,0.00,CLR,,0.28,WeatherDisplay:10.37,2013-01-05 03:40:00,
2013-01-04 22:50:00,55.6,54.8,30.24,NE,44,1.0,5.0,97,0.00,CLR,,0.28,WeatherDisplay:10.37,2013-01-05 03:50:00,
2013-01-04 22:55:00,55.5,54.7,30.24,NNE,29,2.0,6.0,97,0.00,CLR,,0.28,WeatherDisplay:10.37,2013-01-05 03:55:00,
2013-01-04 23:00:00,55.4,54.6,30.25,NNE,26,0.0,9.0,97,0.00,CLR,,0.28,WeatherDisplay:10.37,2013-01-05 04:00:00,
2013-01-04 23:10:00,55.4,54.6,30.25,NNE,22,0.0,6.0,97,0.00,CLR,,0.28,WeatherDisplay:10.37,2013-01-05 04:10:00,
2013-01-04 23:20:00,55.3,54.5,30.25,NNE,13,0.0,5.0,97,0.00,CLR,,0.28,WeatherDisplay:10.37,2013-01-05 04:20:00,
2013-01-04 23:25:00,55.3,54.5,30.25,NNE,19,0.0,5.0,97,0.00,CLR,,0.28,WeatherDisplay:10.37,2013-01-05 04:25:00,
2013-01-04 23:35:00,55.3,54.5,30.24,North,5,0.0,0.0,97,0.00,CLR,,0.28,WeatherDisplay:10.37,2013-01-05 04:35:00,
2013-01-04 23:40:00,55.3,54.5,30.25,North,5,0.0,2.0,97,0.00,CLR,,0.28,WeatherDisplay:10.37,2013-01-05 04:40:00,
2013-01-04 23:45:00,55.3,54.5,30.25,North,1,0.0,3.0,97,0.00,CLR,,0.28,WeatherDisplay:10.37,2013-01-05 04:45:00,
2013-01-04 23:50:00,55.3,54.5,30.25,NNW,343,0.0,1.0,97,0.00,CLR,,0.28,WeatherDisplay:10.37,2013-01-05 04:50:00,
2013-01-04 23:55:00,55.3,54.5,30.25,North,354,0.0,4.0,97,0.00,CLR,,0.28,WeatherDisplay:10.37,2013-01-05 04:55:00,